Year,Month,Day,Hour,Minute,Value (Times are PST for temperature in C)
2018,04,28,00,00,12.70
2018,04,28,00,01,12.70
2018,04,28,00,02,12.70
2018,04,28,00,03,12.70
2018,04,28,00,04,12.70
2018,04,28,00,05,12.70
2018,04,28,00,06,12.70
2018,04,28,00,07,12.70
2018,04,28,00,08,12.60
2018,04,28,00,09,12.60
2018,04,28,00,10,12.60
2018,04,28,00,11,12.60
2018,04,28,00,12,12.60
2018,04,28,00,13,12.60
2018,04,28,00,14,12.60
2018,04,28,00,15,12.60
2018,04,28,00,16,12.60
2018,04,28,00,17,12.60
2018,04,28,00,18,12.60
2018,04,28,00,19,12.60
2018,04,28,00,20,12.60
2018,04,28,00,21,12.60
2018,04,28,00,22,12.60
2018,04,28,00,23,12.60
2018,04,28,00,24,12.60
2018,04,28,00,25,12.60
2018,04,28,00,26,12.60
2018,04,28,00,27,12.60
2018,04,28,00,28,12.60
2018,04,28,00,29,12.60
2018,04,28,00,30,12.60
2018,04,28,00,31,12.60
2018,04,28,00,32,12.60
2018,04,28,00,33,12.60
2018,04,28,00,34,12.60
2018,04,28,00,35,12.60
2018,04,28,00,36,12.60
2018,04,28,00,37,12.60
2018,04,28,00,38,12.60
2018,04,28,00,39,12.60
2018,04,28,00,40,12.60
2018,04,28,00,41,12.60
2018,04,28,00,42,12.60
2018,04,28,00,43,12.60
2018,04,28,00,44,12.60
2018,04,28,00,45,12.60
2018,04,28,00,46,12.60
2018,04,28,00,47,12.60
2018,04,28,00,48,12.60
2018,04,28,00,49,12.60
2018,04,28,00,50,12.60
2018,04,28,00,51,12.60
2018,04,28,00,52,12.60
2018,04,28,00,53,12.60
2018,04,28,00,54,12.60
2018,04,28,00,55,12.60
2018,04,28,00,56,12.60
2018,04,28,00,57,12.60
2018,04,28,00,58,12.60
2018,04,28,00,59,12.60
2018,04,28,01,00,12.60
2018,04,28,01,01,12.60
2018,04,28,01,02,12.60
2018,04,28,01,03,12.60
2018,04,28,01,04,12.60
2018,04,28,01,05,12.60
2018,04,28,01,06,12.60
2018,04,28,01,07,12.60
2018,04,28,01,08,12.60
2018,04,28,01,09,12.60
2018,04,28,01,10,12.50
2018,04,28,01,11,12.50
2018,04,28,01,12,12.50
2018,04,28,01,13,12.50
2018,04,28,01,14,12.50
2018,04,28,01,15,12.50
2018,04,28,01,16,12.50
2018,04,28,01,17,12.50
2018,04,28,01,18,12.50
2018,04,28,01,19,12.50
2018,04,28,01,20,12.50
2018,04,28,01,21,12.40
2018,04,28,01,22,12.50
2018,04,28,01,23,12.40
2018,04,28,01,24,12.40
2018,04,28,01,25,12.40
2018,04,28,01,26,12.40
2018,04,28,01,27,12.40
2018,04,28,01,28,12.40
2018,04,28,01,29,12.40
2018,04,28,01,30,12.40
2018,04,28,01,31,12.40
2018,04,28,01,32,12.40
2018,04,28,01,33,12.40
2018,04,28,01,34,12.40
2018,04,28,01,35,12.40
2018,04,28,01,36,12.40
2018,04,28,01,37,12.40
2018,04,28,01,38,12.40
2018,04,28,01,39,12.40
2018,04,28,01,40,12.40
2018,04,28,01,41,12.40
2018,04,28,01,42,12.40
2018,04,28,01,43,12.40
2018,04,28,01,44,12.40
2018,04,28,01,45,12.40
2018,04,28,01,46,12.40
2018,04,28,01,47,12.40
2018,04,28,01,48,12.40
2018,04,28,01,49,12.40
2018,04,28,01,50,12.40
2018,04,28,01,51,12.40
2018,04,28,01,52,12.30
2018,04,28,01,53,12.30
2018,04,28,01,54,12.30
2018,04,28,01,55,12.30
2018,04,28,01,56,12.30
2018,04,28,01,57,12.30
2018,04,28,01,58,12.30
2018,04,28,01,59,12.30
2018,04,28,02,00,12.30
2018,04,28,02,01,12.30
2018,04,28,02,02,12.30
2018,04,28,02,03,12.30
2018,04,28,02,04,12.30
2018,04,28,02,05,12.30
2018,04,28,02,06,12.30
2018,04,28,02,07,12.30
2018,04,28,02,08,12.30
2018,04,28,02,09,12.30
2018,04,28,02,10,12.30
2018,04,28,02,11,12.30
2018,04,28,02,12,12.30
2018,04,28,02,13,12.30
2018,04,28,02,14,12.30
2018,04,28,02,15,12.30
2018,04,28,02,16,12.30
2018,04,28,02,17,12.30
2018,04,28,02,18,12.30
2018,04,28,02,19,12.30
2018,04,28,02,20,12.30
2018,04,28,02,21,12.30
2018,04,28,02,22,12.30
2018,04,28,02,23,12.30
2018,04,28,02,24,12.30
2018,04,28,02,25,12.30
2018,04,28,02,26,12.30
2018,04,28,02,27,12.30
2018,04,28,02,28,12.20
2018,04,28,02,29,12.20
2018,04,28,02,30,12.20
2018,04,28,02,31,12.20
2018,04,28,02,32,12.20
2018,04,28,02,33,12.20
2018,04,28,02,34,12.20
2018,04,28,02,35,12.20
2018,04,28,02,36,12.20
2018,04,28,02,37,12.20
2018,04,28,02,38,12.20
2018,04,28,02,39,12.20
2018,04,28,02,40,12.20
2018,04,28,02,41,12.20
2018,04,28,02,42,12.20
2018,04,28,02,43,12.20
2018,04,28,02,44,12.20
2018,04,28,02,45,12.20
2018,04,28,02,46,12.20
2018,04,28,02,47,12.20
2018,04,28,02,48,12.20
2018,04,28,02,49,12.20
2018,04,28,02,50,12.20
2018,04,28,02,51,12.20
2018,04,28,02,52,12.10
2018,04,28,02,53,12.20
2018,04,28,02,54,12.20
2018,04,28,02,55,12.20
2018,04,28,02,56,12.20
2018,04,28,02,57,12.20
2018,04,28,02,58,12.10
2018,04,28,02,59,12.10
2018,04,28,03,00,12.10
2018,04,28,03,01,12.10
2018,04,28,03,02,12.10
2018,04,28,03,03,12.10
2018,04,28,03,04,12.10
2018,04,28,03,05,12.10
2018,04,28,03,06,12.10
2018,04,28,03,07,12.10
2018,04,28,03,08,12.10
2018,04,28,03,09,12.10
2018,04,28,03,10,12.10
2018,04,28,03,11,12.10
2018,04,28,03,12,12.10
2018,04,28,03,13,12.10
2018,04,28,03,14,12.10
2018,04,28,03,15,12.10
2018,04,28,03,16,12.10
2018,04,28,03,17,12.10
2018,04,28,03,18,12.10
2018,04,28,03,19,12.10
2018,04,28,03,20,12.10
2018,04,28,03,21,12.10
2018,04,28,03,22,12.10
2018,04,28,03,23,12.10
2018,04,28,03,24,12.10
2018,04,28,03,25,12.10
2018,04,28,03,26,12.10
2018,04,28,03,27,12.10
2018,04,28,03,28,12.10
2018,04,28,03,29,12.10
2018,04,28,03,30,12.10
2018,04,28,03,31,12.10
2018,04,28,03,32,12.10
2018,04,28,03,33,12.10
2018,04,28,03,34,12.10
2018,04,28,03,35,12.10
2018,04,28,03,36,12.10
2018,04,28,03,37,12.10
2018,04,28,03,38,12.10
2018,04,28,03,39,12.10
2018,04,28,03,40,12.10
2018,04,28,03,41,12.10
2018,04,28,03,42,12.10
2018,04,28,03,43,12.10
2018,04,28,03,44,12.10
2018,04,28,03,45,12.10
2018,04,28,03,46,12.10
2018,04,28,03,47,12.10
2018,04,28,03,48,12.10
2018,04,28,03,49,12.10
2018,04,28,03,50,12.10
2018,04,28,03,51,12.10
2018,04,28,03,52,12.10
2018,04,28,03,53,12.10
2018,04,28,03,54,12.10
2018,04,28,03,55,12.10
2018,04,28,03,56,12.10
2018,04,28,03,57,12.10
2018,04,28,03,58,12.10
2018,04,28,03,59,12.10
2018,04,28,04,00,12.10
2018,04,28,04,01,12.10
2018,04,28,04,02,12.10
2018,04,28,04,03,12.10
2018,04,28,04,04,12.10
2018,04,28,04,05,12.10
2018,04,28,04,06,12.10
2018,04,28,04,07,12.10
2018,04,28,04,08,12.10
2018,04,28,04,09,12.10
2018,04,28,04,10,12.10
2018,04,28,04,11,12.10
2018,04,28,04,12,12.10
2018,04,28,04,13,12.10
2018,04,28,04,14,12.10
2018,04,28,04,15,12.10
2018,04,28,04,16,12.10
2018,04,28,04,17,12.10
2018,04,28,04,18,12.10
2018,04,28,04,19,12.10
2018,04,28,04,20,12.10
2018,04,28,04,21,12.10
2018,04,28,04,22,12.10
2018,04,28,04,23,12.10
2018,04,28,04,24,12.10
2018,04,28,04,25,12.10
2018,04,28,04,26,12.10
2018,04,28,04,27,12.10
2018,04,28,04,28,12.10
2018,04,28,04,29,12.10
2018,04,28,04,30,12.10
2018,04,28,04,31,12.10
2018,04,28,04,32,12.10
2018,04,28,04,33,12.10
2018,04,28,04,34,12.10
2018,04,28,04,35,12.10
2018,04,28,04,36,12.10
2018,04,28,04,37,12.10
2018,04,28,04,38,12.10
2018,04,28,04,39,12.10
2018,04,28,04,40,12.10
2018,04,28,04,41,12.10
2018,04,28,04,42,12.10
2018,04,28,04,43,12.10
2018,04,28,04,44,12.10
2018,04,28,04,45,12.10
2018,04,28,04,46,12.10
2018,04,28,04,47,12.10
2018,04,28,04,48,12.10
2018,04,28,04,49,12.10
2018,04,28,04,50,12.10
2018,04,28,04,51,12.10
2018,04,28,04,52,12.10
2018,04,28,04,53,12.10
2018,04,28,04,54,12.10
2018,04,28,04,55,12.10
2018,04,28,04,56,12.10
2018,04,28,04,57,12.10
2018,04,28,04,58,12.10
2018,04,28,04,59,12.10
2018,04,28,05,00,12.10
2018,04,28,05,01,12.10
2018,04,28,05,02,12.10
2018,04,28,05,03,12.10
2018,04,28,05,04,12.10
2018,04,28,05,05,12.10
2018,04,28,05,06,12.10
2018,04,28,05,07,12.10
2018,04,28,05,08,12.10
2018,04,28,05,09,12.10
2018,04,28,05,10,12.10
2018,04,28,05,11,12.10
2018,04,28,05,12,12.10
2018,04,28,05,13,12.10
2018,04,28,05,14,12.10
2018,04,28,05,15,12.10
2018,04,28,05,16,12.10
2018,04,28,05,17,12.10
2018,04,28,05,18,12.10
2018,04,28,05,19,12.10
2018,04,28,05,20,12.10
2018,04,28,05,21,12.10
2018,04,28,05,22,12.10
2018,04,28,05,23,12.20
2018,04,28,05,24,12.20
2018,04,28,05,25,12.20
2018,04,28,05,26,12.20
2018,04,28,05,27,12.20
2018,04,28,05,28,12.20
2018,04,28,05,29,12.20
2018,04,28,05,30,12.20
2018,04,28,05,31,12.20
2018,04,28,05,32,12.20
2018,04,28,05,33,12.10
2018,04,28,05,34,12.10
2018,04,28,05,35,12.10
2018,04,28,05,36,12.10
2018,04,28,05,37,12.10
2018,04,28,05,38,12.10
2018,04,28,05,39,12.10
2018,04,28,05,40,12.10
2018,04,28,05,41,12.10
2018,04,28,05,42,12.10
2018,04,28,05,43,12.10
2018,04,28,05,44,12.10
2018,04,28,05,45,12.00
2018,04,28,05,46,12.00
2018,04,28,05,47,12.00
2018,04,28,05,48,12.00
2018,04,28,05,49,12.00
2018,04,28,05,50,12.00
2018,04,28,05,51,12.00
2018,04,28,05,52,12.00
2018,04,28,05,53,12.00
2018,04,28,05,54,12.00
2018,04,28,05,55,11.90
2018,04,28,05,56,11.90
2018,04,28,05,57,11.90
2018,04,28,05,58,11.90
2018,04,28,05,59,11.90
2018,04,28,06,00,11.90
2018,04,28,06,01,11.90
2018,04,28,06,02,11.90
2018,04,28,06,03,11.90
2018,04,28,06,04,11.90
2018,04,28,06,05,11.90
2018,04,28,07,46,10.30
2018,04,28,07,47,10.30
2018,04,28,07,48,10.30
2018,04,28,07,49,10.30
2018,04,28,07,50,10.30
2018,04,28,07,51,10.30
2018,04,28,07,52,10.30
2018,04,28,07,53,10.30
2018,04,28,07,54,10.30
2018,04,28,07,55,10.30
2018,04,28,07,56,10.30
2018,04,28,07,57,10.30
2018,04,28,07,58,10.30
2018,04,28,07,59,10.30
2018,04,28,08,00,10.30
2018,04,28,08,01,10.30
2018,04,28,08,02,10.30
2018,04,28,08,03,10.30
2018,04,28,08,04,10.30
2018,04,28,08,05,10.30
2018,04,28,08,06,10.30
2018,04,28,08,07,10.30
2018,04,28,08,08,10.30
2018,04,28,08,09,10.30
2018,04,28,08,10,10.30
2018,04,28,08,11,10.30
2018,04,28,08,12,10.30
2018,04,28,08,13,10.30
2018,04,28,08,14,10.30
2018,04,28,08,15,10.30
2018,04,28,08,16,10.30
2018,04,28,08,17,10.30
2018,04,28,08,18,10.30
2018,04,28,08,19,10.30
2018,04,28,08,20,10.30
2018,04,28,08,21,10.30
2018,04,28,08,22,10.30
2018,04,28,08,23,10.30
2018,04,28,08,24,10.30
2018,04,28,08,25,10.30
2018,04,28,08,26,10.30
2018,04,28,08,27,10.30
2018,04,28,08,28,10.30
2018,04,28,08,29,10.30
2018,04,28,08,30,10.30
2018,04,28,08,31,10.30
2018,04,28,08,32,10.30
2018,04,28,08,33,10.30
2018,04,28,08,34,10.30
2018,04,28,08,35,10.30
2018,04,28,08,36,10.30
2018,04,28,08,37,10.30
2018,04,28,08,38,10.30
2018,04,28,08,39,10.30
2018,04,28,08,40,10.30
2018,04,28,08,41,10.30
2018,04,28,08,42,10.20
2018,04,28,08,43,10.20
2018,04,28,08,44,10.30
2018,04,28,08,45,10.20
2018,04,28,08,46,10.20
2018,04,28,08,47,10.20
2018,04,28,08,48,10.20
2018,04,28,08,49,10.20
2018,04,28,08,50,10.20
2018,04,28,08,51,10.20
2018,04,28,08,52,10.20
2018,04,28,08,53,10.20
2018,04,28,08,54,10.20
2018,04,28,08,55,10.20
2018,04,28,08,56,10.20
2018,04,28,08,57,10.20
2018,04,28,08,58,10.20
2018,04,28,08,59,10.20
2018,04,28,09,00,10.10
2018,04,28,09,01,10.10
2018,04,28,09,02,10.10
2018,04,28,09,03,10.10
2018,04,28,09,04,10.10
2018,04,28,09,05,10.10
2018,04,28,09,06,10.10
2018,04,28,09,07,10.10
2018,04,28,09,08,10.10
2018,04,28,09,09,10.10
2018,04,28,09,10,10.10
2018,04,28,09,11,10.10
2018,04,28,09,12,10.10
2018,04,28,09,13,10.10
2018,04,28,09,14,10.10
2018,04,28,09,15,10.10
2018,04,28,09,16,10.10
2018,04,28,09,17,10.10
2018,04,28,09,18,10.10
2018,04,28,09,19,10.10
2018,04,28,09,20,10.10
2018,04,28,09,21,10.10
2018,04,28,09,22,10.10
2018,04,28,09,23,10.10
2018,04,28,09,24,10.10
2018,04,28,09,25,10.10
2018,04,28,09,26,10.10
2018,04,28,09,27,10.10
2018,04,28,09,28,10.10
2018,04,28,09,29,10.10
2018,04,28,09,30,10.10
2018,04,28,09,31,10.10
2018,04,28,09,32,10.10
2018,04,28,09,33,10.10
2018,04,28,09,34,10.10
2018,04,28,09,35,10.10
2018,04,28,09,36,10.10
2018,04,28,09,37,10.10
2018,04,28,09,38,10.10
2018,04,28,09,39,10.10
2018,04,28,09,40,10.10
2018,04,28,09,41,10.10
2018,04,28,09,42,10.10
2018,04,28,09,43,10.10
2018,04,28,09,44,10.10
2018,04,28,09,45,10.10
2018,04,28,09,46,10.10
2018,04,28,09,47,10.10
2018,04,28,09,48,10.10
2018,04,28,09,49,10.10
2018,04,28,09,50,10.10
2018,04,28,09,51,10.10
2018,04,28,09,52,10.20
2018,04,28,09,53,10.10
2018,04,28,09,54,10.10
2018,04,28,09,55,10.10
2018,04,28,09,56,10.10
2018,04,28,09,57,10.10
2018,04,28,09,58,10.20
2018,04,28,09,59,10.20
2018,04,28,10,00,10.20
2018,04,28,10,01,10.20
2018,04,28,10,02,10.20
2018,04,28,10,03,10.20
2018,04,28,10,04,10.20
2018,04,28,10,05,10.20
2018,04,28,10,06,10.20
2018,04,28,10,07,10.20
2018,04,28,10,08,10.20
2018,04,28,10,09,10.20
2018,04,28,10,10,10.20
2018,04,28,10,11,10.20
2018,04,28,10,12,10.20
2018,04,28,10,13,10.20
2018,04,28,10,14,10.20
2018,04,28,10,15,10.20
2018,04,28,10,16,10.20
2018,04,28,10,17,10.20
2018,04,28,10,18,10.20
2018,04,28,10,19,10.20
2018,04,28,10,20,10.20
2018,04,28,10,21,10.20
2018,04,28,10,22,10.20
2018,04,28,10,23,10.20
2018,04,28,10,24,10.20
2018,04,28,10,25,10.20
2018,04,28,10,26,10.20
2018,04,28,10,27,10.20
2018,04,28,10,28,10.20
2018,04,28,10,29,10.20
2018,04,28,10,30,10.20
2018,04,28,10,31,10.20
2018,04,28,10,32,10.20
2018,04,28,10,33,10.20
2018,04,28,10,34,10.20
2018,04,28,10,35,10.20
2018,04,28,10,36,10.20
2018,04,28,10,37,10.20
2018,04,28,10,38,10.20
2018,04,28,10,39,10.20
2018,04,28,10,40,10.20
2018,04,28,10,41,10.20
2018,04,28,10,42,10.20
2018,04,28,10,43,10.20
2018,04,28,10,44,10.20
2018,04,28,10,45,10.20
2018,04,28,10,46,10.20
2018,04,28,10,47,10.20
2018,04,28,10,48,10.20
2018,04,28,10,49,10.20
2018,04,28,10,50,10.20
2018,04,28,10,51,10.20
2018,04,28,10,52,10.20
2018,04,28,10,53,10.20
2018,04,28,10,54,10.20
2018,04,28,10,55,10.20
2018,04,28,10,56,10.20
2018,04,28,10,57,10.20
2018,04,28,10,58,10.20
2018,04,28,10,59,10.20
2018,04,28,11,00,10.20
2018,04,28,11,01,10.20
2018,04,28,11,02,10.20
2018,04,28,11,03,10.20
2018,04,28,11,04,10.20
2018,04,28,11,05,10.20
2018,04,28,11,06,10.20
2018,04,28,11,07,10.20
2018,04,28,11,08,10.20
2018,04,28,11,09,10.20
2018,04,28,11,10,10.20
2018,04,28,11,11,10.20
2018,04,28,11,12,10.20
2018,04,28,11,13,10.20
2018,04,28,11,14,10.20
2018,04,28,11,15,10.20
2018,04,28,11,16,10.20
2018,04,28,11,17,10.20
2018,04,28,11,18,10.20
2018,04,28,11,19,10.20
2018,04,28,11,20,10.20
2018,04,28,11,21,10.20
2018,04,28,11,22,10.20
2018,04,28,11,23,10.20
2018,04,28,11,24,10.20
2018,04,28,11,25,10.20
2018,04,28,11,26,10.20
2018,04,28,11,27,10.20
2018,04,28,11,28,10.20
2018,04,28,11,29,10.20
2018,04,28,11,30,10.20
2018,04,28,11,31,10.20
2018,04,28,11,32,10.20
2018,04,28,11,33,10.20
2018,04,28,11,34,10.20
2018,04,28,11,35,10.20
2018,04,28,11,36,10.20
2018,04,28,11,37,10.20
2018,04,28,11,38,10.20
2018,04,28,11,39,10.20
2018,04,28,11,40,10.20
2018,04,28,11,41,10.20
2018,04,28,11,42,10.20
2018,04,28,11,43,10.30
2018,04,28,11,44,10.30
2018,04,28,11,45,10.30
2018,04,28,11,46,10.30
2018,04,28,11,47,10.30
2018,04,28,11,48,10.30
2018,04,28,11,49,10.30
2018,04,28,11,50,10.30
2018,04,28,11,51,10.30
2018,04,28,11,52,10.30
2018,04,28,11,53,10.30
2018,04,28,11,54,10.40
2018,04,28,11,55,10.40
2018,04,28,11,56,10.40
2018,04,28,11,57,10.40
2018,04,28,11,58,10.40
2018,04,28,11,59,10.40
2018,04,28,12,00,10.40
2018,04,28,12,01,10.40
2018,04,28,12,02,10.30
2018,04,28,12,03,10.30
2018,04,28,12,04,10.30
2018,04,28,12,05,10.40
2018,04,28,12,06,10.40
2018,04,28,12,07,10.40
2018,04,28,12,08,10.40
2018,04,28,12,09,10.40
2018,04,28,12,10,10.40
2018,04,28,12,11,10.30
2018,04,28,12,12,10.30
2018,04,28,12,13,10.30
2018,04,28,12,14,10.30
2018,04,28,12,15,10.30
2018,04,28,12,16,10.30
2018,04,28,12,17,10.30
2018,04,28,12,18,10.30
2018,04,28,12,19,10.30
2018,04,28,12,20,10.30
2018,04,28,12,21,10.30
2018,04,28,12,22,10.30
2018,04,28,12,23,10.30
2018,04,28,12,24,10.30
2018,04,28,12,25,10.30
2018,04,28,12,26,10.30
2018,04,28,12,27,10.30
2018,04,28,12,28,10.30
2018,04,28,12,29,10.30
2018,04,28,12,30,10.30
2018,04,28,12,31,10.30
2018,04,28,12,32,10.30
2018,04,28,12,33,10.30
2018,04,28,12,34,10.30
2018,04,28,12,35,10.30
2018,04,28,12,36,10.30
2018,04,28,12,37,10.30
2018,04,28,12,38,10.30
2018,04,28,12,39,10.30
2018,04,28,12,40,10.30
2018,04,28,12,41,10.30
2018,04,28,12,42,10.30
2018,04,28,12,43,10.30
2018,04,28,12,44,10.30
2018,04,28,12,45,10.30
2018,04,28,12,46,10.30
2018,04,28,12,47,10.30
2018,04,28,12,48,10.30
2018,04,28,12,49,10.30
2018,04,28,12,50,10.30
2018,04,28,12,51,10.20
2018,04,28,12,52,10.20
2018,04,28,12,53,10.20
2018,04,28,12,54,10.20
2018,04,28,12,55,10.20
2018,04,28,12,56,10.20
2018,04,28,12,57,10.20
2018,04,28,12,58,10.20
2018,04,28,12,59,10.20
2018,04,28,13,00,10.20
2018,04,28,13,01,10.30
2018,04,28,13,02,10.20
2018,04,28,13,03,10.20
2018,04,28,13,04,10.20
2018,04,28,13,05,10.20
2018,04,28,13,06,10.20
2018,04,28,13,07,10.20
2018,04,28,13,08,10.20
2018,04,28,13,09,10.20
2018,04,28,13,10,10.20
2018,04,28,13,11,10.30
2018,04,28,13,12,10.30
2018,04,28,13,13,10.30
2018,04,28,13,14,10.30
2018,04,28,13,15,10.30
2018,04,28,13,16,10.30
2018,04,28,13,17,10.30
2018,04,28,13,18,10.30
2018,04,28,13,19,10.30
2018,04,28,13,20,10.30
2018,04,28,13,21,10.30
2018,04,28,13,22,10.30
2018,04,28,13,23,10.20
2018,04,28,13,24,10.20
2018,04,28,13,25,10.20
2018,04,28,13,26,10.20
2018,04,28,13,27,10.20
2018,04,28,13,28,10.20
2018,04,28,13,29,10.30
2018,04,28,13,30,10.30
2018,04,28,13,31,10.30
2018,04,28,13,32,10.30
2018,04,28,13,33,10.30
2018,04,28,13,34,10.30
2018,04,28,13,35,10.30
2018,04,28,13,36,10.30
2018,04,28,13,37,10.30
2018,04,28,13,38,10.30
2018,04,28,13,39,10.30
2018,04,28,13,40,10.30
2018,04,28,13,41,10.30
2018,04,28,13,42,10.30
2018,04,28,13,43,10.30
2018,04,28,13,44,10.30
2018,04,28,13,45,10.30
2018,04,28,13,46,10.40
2018,04,28,13,47,10.40
2018,04,28,13,48,10.40
2018,04,28,13,49,10.40
2018,04,28,13,50,10.40
2018,04,28,13,51,10.40
2018,04,28,13,52,10.40
2018,04,28,13,53,10.40
2018,04,28,13,54,10.40
2018,04,28,13,55,10.40
2018,04,28,13,56,10.40
2018,04,28,13,57,10.40
2018,04,28,13,58,10.40
2018,04,28,13,59,10.40
2018,04,28,14,00,10.40
2018,04,28,14,01,10.40
2018,04,28,14,02,10.40
2018,04,28,14,03,10.40
2018,04,28,14,04,10.40
2018,04,28,14,05,10.40
2018,04,28,14,06,10.40
2018,04,28,14,07,10.40
2018,04,28,14,08,10.50
2018,04,28,14,09,10.50
2018,04,28,14,10,10.50
2018,04,28,14,11,10.50
2018,04,28,14,12,10.50
2018,04,28,14,13,10.50
2018,04,28,14,14,10.50
2018,04,28,14,15,10.40
2018,04,28,14,16,10.50
2018,04,28,14,17,10.40
2018,04,28,14,18,10.40
2018,04,28,14,19,10.40
2018,04,28,14,20,10.50
2018,04,28,14,21,10.50
2018,04,28,14,22,10.40
2018,04,28,14,23,10.40
2018,04,28,14,24,10.40
2018,04,28,14,25,10.40
2018,04,28,14,26,10.40
2018,04,28,14,27,10.40
2018,04,28,14,28,10.40
2018,04,28,14,29,10.40
2018,04,28,14,30,10.40
2018,04,28,14,31,10.40
2018,04,28,14,32,10.40
2018,04,28,14,33,10.40
2018,04,28,14,34,10.40
2018,04,28,14,35,10.40
2018,04,28,14,36,10.40
2018,04,28,14,37,10.50
2018,04,28,14,38,10.50
2018,04,28,14,39,10.40
2018,04,28,14,40,10.40
2018,04,28,14,41,10.40
2018,04,28,14,42,10.40
2018,04,28,14,43,10.40
2018,04,28,14,44,10.40
2018,04,28,14,45,10.40
2018,04,28,14,46,10.40
2018,04,28,14,47,10.40
2018,04,28,14,48,10.40
2018,04,28,14,49,10.40
2018,04,28,14,50,10.40
2018,04,28,14,51,10.40
2018,04,28,14,52,10.40
2018,04,28,14,53,10.30
2018,04,28,14,54,10.30
2018,04,28,14,55,10.30
2018,04,28,14,56,10.30
2018,04,28,14,57,10.30
2018,04,28,14,58,10.30
2018,04,28,14,59,10.30
2018,04,28,15,00,10.30
2018,04,28,15,01,10.30
2018,04,28,15,02,10.30
2018,04,28,15,03,10.30
2018,04,28,15,04,10.30
2018,04,28,15,05,10.30
2018,04,28,15,06,10.30
2018,04,28,15,07,10.30
2018,04,28,15,08,10.30
2018,04,28,15,09,10.30
2018,04,28,15,10,10.30
2018,04,28,15,11,10.30
2018,04,28,15,12,10.30
2018,04,28,15,13,10.30
2018,04,28,15,14,10.30
2018,04,28,15,15,10.30
2018,04,28,15,16,10.30
2018,04,28,15,17,10.30
2018,04,28,15,18,10.30
2018,04,28,15,19,10.30
2018,04,28,15,20,10.30
2018,04,28,15,21,10.30
2018,04,28,15,22,10.30
2018,04,28,15,23,10.30
2018,04,28,15,24,10.30
2018,04,28,15,25,10.30
2018,04,28,15,26,10.30
2018,04,28,15,27,10.30
2018,04,28,15,28,10.30
2018,04,28,15,29,10.40
2018,04,28,15,30,10.40
2018,04,28,15,31,10.40
2018,04,28,15,32,10.40
2018,04,28,15,33,10.40
2018,04,28,15,34,10.40
2018,04,28,15,35,10.40
2018,04,28,15,36,10.40
2018,04,28,15,37,10.40
2018,04,28,15,38,10.40
2018,04,28,15,39,10.40
2018,04,28,15,40,10.40
2018,04,28,15,41,10.40
2018,04,28,15,42,10.40
2018,04,28,15,43,10.40
2018,04,28,15,44,10.40
2018,04,28,15,45,10.40
2018,04,28,15,46,10.40
2018,04,28,15,47,10.40
2018,04,28,15,48,10.40
2018,04,28,15,49,10.40
2018,04,28,15,50,10.40
2018,04,28,15,51,10.40
2018,04,28,15,52,10.40
2018,04,28,15,53,10.40
2018,04,28,15,54,10.40
2018,04,28,15,55,10.40
2018,04,28,15,56,10.40
2018,04,28,15,57,10.40
2018,04,28,15,58,10.40
2018,04,28,15,59,10.50
2018,04,28,16,00,10.50
2018,04,28,16,01,10.50
2018,04,28,16,02,10.60
2018,04,28,16,03,10.60
2018,04,28,16,04,10.60
2018,04,28,16,05,10.50
2018,04,28,16,06,10.50
2018,04,28,16,07,10.50
2018,04,28,16,08,10.50
2018,04,28,16,09,10.50
2018,04,28,16,10,10.50
2018,04,28,16,11,10.50
2018,04,28,16,12,10.50
2018,04,28,16,13,10.50
2018,04,28,16,14,10.50
2018,04,28,16,15,10.50
2018,04,28,16,16,10.50
2018,04,28,16,17,10.50
2018,04,28,16,18,10.50
2018,04,28,16,19,10.50
2018,04,28,16,20,10.50
2018,04,28,16,21,10.50
2018,04,28,16,22,10.50
2018,04,28,16,23,10.50
2018,04,28,16,24,10.50
2018,04,28,16,25,10.50
2018,04,28,16,26,10.50
2018,04,28,16,27,10.50
2018,04,28,16,28,10.50
2018,04,28,16,29,10.60
2018,04,28,16,30,10.60
2018,04,28,16,31,10.60
2018,04,28,16,32,10.60
2018,04,28,16,33,10.60
2018,04,28,16,34,10.60
2018,04,28,16,35,10.60
2018,04,28,16,36,10.60
2018,04,28,16,37,10.60
2018,04,28,16,38,10.60
2018,04,28,16,39,10.70
2018,04,28,16,40,10.70
2018,04,28,16,41,10.70
2018,04,28,16,42,10.70
2018,04,28,16,43,10.70
2018,04,28,16,44,10.70
2018,04,28,16,45,10.70
2018,04,28,16,46,10.70
2018,04,28,16,47,10.70
2018,04,28,16,48,10.70
2018,04,28,16,49,10.70
2018,04,28,16,50,10.70
2018,04,28,16,51,10.70
2018,04,28,16,52,10.80
2018,04,28,16,53,10.80
2018,04,28,16,54,10.80
2018,04,28,16,55,10.80
2018,04,28,16,56,10.80
2018,04,28,16,57,10.80
2018,04,28,16,58,10.80
2018,04,28,16,59,10.80
2018,04,28,17,00,10.80
2018,04,28,17,01,10.80
2018,04,28,17,02,10.80
2018,04,28,17,03,10.80
2018,04,28,17,04,10.80
2018,04,28,17,05,10.90
2018,04,28,17,06,10.90
2018,04,28,17,07,10.90
2018,04,28,17,08,10.90
2018,04,28,17,09,10.90
2018,04,28,17,10,10.90
2018,04,28,17,11,10.90
2018,04,28,17,12,10.90
2018,04,28,17,13,10.90
2018,04,28,17,14,10.90
2018,04,28,17,15,10.90
2018,04,28,17,16,10.90
2018,04,28,17,17,10.90
2018,04,28,17,18,10.90
2018,04,28,17,19,11.00
2018,04,28,17,20,11.00
2018,04,28,17,21,11.00
2018,04,28,17,22,11.00
2018,04,28,17,23,10.90
2018,04,28,17,24,10.90
2018,04,28,17,25,10.90
2018,04,28,17,26,10.90
2018,04,28,17,27,10.90
2018,04,28,17,28,10.90
2018,04,28,17,29,10.90
2018,04,28,17,30,10.90
2018,04,28,17,31,10.90
2018,04,28,17,32,10.90
2018,04,28,17,33,10.90
2018,04,28,17,34,10.90
2018,04,28,17,35,10.90
2018,04,28,17,36,10.90
2018,04,28,17,37,10.90
2018,04,28,17,38,10.90
2018,04,28,17,39,10.90
2018,04,28,17,40,11.00
2018,04,28,17,41,10.90
2018,04,28,17,42,10.90
2018,04,28,17,43,11.00
2018,04,28,17,44,11.00
2018,04,28,17,45,11.00
2018,04,28,17,46,11.00
2018,04,28,17,47,11.00
2018,04,28,17,48,11.00
2018,04,28,17,49,11.00
2018,04,28,17,50,11.00
2018,04,28,17,51,11.00
2018,04,28,17,52,11.00
2018,04,28,17,53,11.00
2018,04,28,17,54,11.00
2018,04,28,17,55,11.00
2018,04,28,17,56,11.00
2018,04,28,17,57,11.00
2018,04,28,17,58,11.10
2018,04,28,17,59,11.10
2018,04,28,18,00,11.10
2018,04,28,18,01,11.10
2018,04,28,18,02,11.10
2018,04,28,18,03,11.10
2018,04,28,18,04,11.10
2018,04,28,18,05,11.10
2018,04,28,18,06,11.10
2018,04,28,18,07,11.10
2018,04,28,18,08,11.10
2018,04,28,18,09,11.10
2018,04,28,18,10,11.10
2018,04,28,18,11,11.10
2018,04,28,18,12,11.20
2018,04,28,18,13,11.20
2018,04,28,18,14,11.20
2018,04,28,18,15,11.20
2018,04,28,18,16,11.20
2018,04,28,18,17,11.20
2018,04,28,18,18,11.20
2018,04,28,18,19,11.20
2018,04,28,18,20,11.20
2018,04,28,18,21,11.20
2018,04,28,18,22,11.20
2018,04,28,18,23,11.20
2018,04,28,18,24,11.20
2018,04,28,18,25,11.20
2018,04,28,18,26,11.20
2018,04,28,18,27,11.20
2018,04,28,18,28,11.20
2018,04,28,18,29,11.20
2018,04,28,18,30,11.20
2018,04,28,18,31,11.20
2018,04,28,18,32,11.20
2018,04,28,18,33,11.20
2018,04,28,18,34,11.30
2018,04,28,18,35,11.30
2018,04,28,18,36,11.30
2018,04,28,18,37,11.30
2018,04,28,18,38,11.30
2018,04,28,18,39,11.30
2018,04,28,18,40,11.30
2018,04,28,18,41,11.30
2018,04,28,18,42,11.40
2018,04,28,18,43,11.40
2018,04,28,18,44,11.40
2018,04,28,18,45,11.40
2018,04,28,18,46,11.40
2018,04,28,18,47,11.40
2018,04,28,18,48,11.40
2018,04,28,18,49,11.40
2018,04,28,18,50,11.40
2018,04,28,18,51,11.40
2018,04,28,18,52,11.40
2018,04,28,18,53,11.40
2018,04,28,18,54,11.40
2018,04,28,18,55,11.40
2018,04,28,18,56,11.40
2018,04,28,18,57,11.40
2018,04,28,18,58,11.40
2018,04,28,18,59,11.40